GFSFLT1_prec_kuchsnow_357.txt.gz
Snowfall_Accumulation
0.0 0.0 0.0 0.0 0.0 0.0 0.0 0.0 0.0 0.0 0.0 0.0 0.0 0.0 0.0 0.0 0.0 0.0 0.0 0.0 0.0 0.0 0.0 0.0 0.0 0.0 0.0 0.0 0.0 0.0 0.0 0.0
0.0 0.0 0.0 0.0 0.0 0.0 0.0 0.0 0.0 0.0 0.0 0.0 0.0 0.0 0.0 0.0 0.0 0.0 0.0 0.0 0.0 0.0 0.0 0.0 0.0 0.0 0.0 0.0 0.0 0.0 0.0 0.0
0.0 0.0 0.0 0.0 0.0 0.0 0.0 0.0 0.0 0.0 0.0 0.0 0.0 0.0 0.0 0.0 0.0 0.0 0.0 0.0 0.0 0.0 0.0 0.0 0.0 0.0 0.0 0.0 0.0 0.0 0.0 0.0
0.0 0.0 0.0 0.0 0.0 0.0 0.0 0.0 0.0 0.0 0.0 0.0 0.0 0.0 0.0 0.0 0.0 0.0 0.0 0.0 0.0 0.0 0.0 0.0 0.0 0.0 0.0 0.0 0.0 0.0 0.1 0.0
0.0 0.0 0.0 0.0 0.0 0.0 0.0 0.0 0.0 0.0 0.0 0.0 0.0 0.0 0.0 0.0 0.0 0.0 0.0 0.0 0.0 0.0 0.0 0.0 0.0 0.0 0.0 0.0 0.0 0.0 0.1 0.1
0.0 0.0 0.0 0.0 0.0 0.0 0.0 0.0 0.0 0.0 0.0 0.0 0.0 0.0 0.0 0.0 0.0 0.0 0.0 0.0 0.0 0.0 0.0 0.0 0.0 0.0 0.0 0.0 0.0 0.0 0.0 0.1
0.0 0.0 0.0 0.0 0.0 0.0 0.0 0.0 0.0 0.0 0.0 0.0 0.0 0.0 0.0 0.0 0.0 0.0 0.0 0.0 0.0 0.0 0.0 0.0 0.0 0.0 0.1 0.0 0.1 0.1 0.1 0.1
0.0 0.0 0.0 0.0 0.0 0.0 0.0 0.0 0.0 0.0 0.0 0.0 0.0 0.0 0.0 0.0 0.0 0.0 0.0 0.0 0.0 0.0 0.0 0.0 0.0 0.1 0.1 0.1 0.0 0.1 0.2 0.2
0.0 0.0 0.0 0.0 0.0 0.0 0.0 0.0 0.0 0.0 0.0 0.0 0.0 0.0 0.0 0.1 0.0 0.1 0.1 0.1 0.2 0.1 0.2 0.0 0.0 0.2 0.0 0.1 0.1 0.1 0.2 0.4
0.1 0.0 0.0 0.0 0.0 0.0 0.1 0.0 0.0 0.0 0.0 0.0 0.0 0.0 0.2 0.2 0.1 0.1 0.2 0.2 0.2 0.2 0.1 0.1 0.1 0.1 0.1 0.1 0.2 0.3 0.3 0.6
1.2 0.3 0.2 0.0 0.0 0.0 0.1 0.0 0.3 0.5 0.2 0.1 0.1 0.1 0.3 0.5 0.5 0.8 0.7 0.5 0.9 0.7 0.4 0.4 0.3 0.4 0.2 0.2 0.4 0.6 0.5 0.5
5.2 5.4 1.9 2.0 2.2 0.8 1.4 2.2 1.0 0.4 0.1 0.1 0.5 1.0 1.8 1.6 1.8 1.5 1.4 1.2 1.0 0.8 1.0 1.0 1.2 1.2 1.1 1.0 0.8 0.8 0.9 0.6
4.1 9.7 10.4 8.2 8.1 7.1 5.3 1.5 0.9 0.4 0.4 0.6 2.3 2.9 2.5 2.3 2.6 2.2 1.8 1.8 1.3 1.4 1.3 1.1 1.2 1.4 1.4 1.7 1.8 1.6 1.7 1.4
1.7 3.8 7.1 13.0 6.3 8.5 5.8 4.3 4.6 2.1 2.5 2.5 3.7 4.0 3.6 3.6 3.5 3.0 2.4 2.3 2.1 1.4 1.6 2.1 1.8 1.7 1.5 1.6 1.8 1.7 1.7 1.8
1.9 1.9 2.8 3.2 3.5 8.2 14.4 6.0 5.3 6.1 5.7 4.5 4.3 5.2 5.4 5.2 3.4 3.3 1.4 0.7 0.9 1.1 1.6 2.4 2.7 1.9 1.4 1.7 1.5 1.5 1.7 2.5
2.0 2.3 2.4 1.9 1.7 1.8 2.9 3.1 5.3 5.3 7.7 7.0 8.2 6.1 3.9 3.0 3.4 2.1 1.0 1.2 1.2 0.3 0.0 0.2 0.3 0.9 1.8 1.5 1.5 1.3 1.0 1.9
1.7 1.5 0.6 0.8 0.9 1.4 0.9 1.3 3.5 2.9 4.3 8.8 6.8 6.1 6.2 4.4 2.7 2.2 2.3 2.2 1.3 1.7 2.2 1.9 1.5 1.7 0.6 0.7 1.1 1.4 2.4 2.3
1.3 1.3 1.2 1.1 1.0 0.7 0.7 0.8 1.5 2.1 2.2 7.0 8.2 7.5 6.3 7.5 1.2 1.6 3.2 5.6 5.7 4.3 5.6 3.7 4.7 4.9 2.9 1.4 1.1 1.5 1.7 1.5
1.4 1.4 1.1 1.0 0.1 0.2 0.0 0.0 0.2 1.0 0.4 3.0 4.2 4.0 5.4 12.5 9.3 10.3 10.8 7.4 9.0 9.0 9.6 10.2 9.7 11.6 7.4 10.7 12.0 7.2 7.0 7.6

GFSFLT1_prec_kuchsnow_360.txt.gz
Snowfall_Accumulation
0.0 0.0 0.0 0.0 0.0 0.0 0.0 0.0 0.0 0.0 0.0 0.0 0.0 0.0 0.0 0.0 0.0 0.0 0.0 0.0 0.0 0.0 0.0 0.0 0.0 0.0 0.0 0.0 0.0 0.0 0.0 0.0
0.0 0.0 0.0 0.0 0.0 0.0 0.0 0.0 0.0 0.0 0.0 0.0 0.0 0.0 0.0 0.0 0.0 0.0 0.0 0.0 0.0 0.0 0.0 0.0 0.0 0.0 0.0 0.0 0.0 0.0 0.0 0.0
0.0 0.0 0.0 0.0 0.0 0.0 0.0 0.0 0.0 0.0 0.0 0.0 0.0 0.0 0.0 0.0 0.0 0.0 0.0 0.0 0.0 0.0 0.0 0.0 0.0 0.0 0.0 0.0 0.0 0.0 0.0 0.0
0.0 0.0 0.0 0.0 0.0 0.0 0.0 0.0 0.0 0.0 0.0 0.0 0.0 0.0 0.0 0.0 0.0 0.0 0.0 0.0 0.0 0.0 0.0 0.0 0.0 0.0 0.0 0.0 0.0 0.0 0.1 0.0
0.0 0.0 0.0 0.0 0.0 0.0 0.0 0.0 0.0 0.0 0.0 0.0 0.0 0.0 0.0 0.0 0.0 0.0 0.0 0.0 0.0 0.0 0.0 0.0 0.0 0.0 0.0 0.0 0.0 0.0 0.1 0.1
0.0 0.0 0.0 0.0 0.0 0.0 0.0 0.0 0.0 0.0 0.0 0.0 0.0 0.0 0.0 0.0 0.0 0.0 0.0 0.0 0.0 0.0 0.0 0.0 0.0 0.0 0.0 0.0 0.0 0.0 0.0 0.1
0.0 0.0 0.0 0.0 0.0 0.0 0.0 0.0 0.0 0.0 0.0 0.0 0.0 0.0 0.0 0.0 0.0 0.0 0.0 0.0 0.0 0.0 0.0 0.0 0.0 0.0 0.1 0.0 0.1 0.1 0.1 0.1
0.0 0.0 0.0 0.0 0.0 0.0 0.0 0.0 0.0 0.0 0.0 0.0 0.0 0.0 0.0 0.0 0.0 0.0 0.0 0.0 0.0 0.0 0.0 0.0 0.0 0.1 0.1 0.1 0.0 0.1 0.2 0.2
0.0 0.0 0.0 0.0 0.0 0.0 0.0 0.0 0.0 0.0 0.0 0.0 0.0 0.0 0.0 0.1 0.0 0.1 0.1 0.1 0.2 0.1 0.2 0.0 0.0 0.2 0.0 0.1 0.1 0.1 0.2 0.4
0.1 0.0 0.0 0.0 0.0 0.0 0.1 0.0 0.0 0.0 0.0 0.0 0.0 0.0 0.2 0.2 0.1 0.1 0.2 0.2 0.2 0.2 0.1 0.1 0.1 0.1 0.1 0.1 0.2 0.3 0.3 0.6
1.2 0.3 0.2 0.0 0.0 0.0 0.1 0.0 0.3 0.5 0.2 0.1 0.1 0.1 0.3 0.5 0.5 0.8 0.7 0.5 0.9 0.7 0.4 0.4 0.3 0.4 0.2 0.2 0.4 0.6 0.5 0.5
5.2 5.4 1.9 2.0 2.2 0.8 1.4 2.2 1.0 0.4 0.1 0.1 0.5 1.0 1.8 1.6 1.8 1.5 1.4 1.2 1.0 0.8 1.0 1.0 1.2 1.2 1.1 1.0 0.8 0.8 0.9 0.6
4.1 9.7 10.4 8.2 8.1 7.1 5.3 1.5 0.9 0.4 0.4 0.6 2.3 2.9 2.5 2.3 2.6 2.2 1.8 1.8 1.3 1.4 1.3 1.1 1.2 1.4 1.4 1.7 1.8 1.6 1.7 1.4
1.7 3.8 7.1 13.0 6.3 8.5 5.8 4.3 4.6 2.1 2.5 2.5 3.7 4.0 3.6 3.6 3.5 3.0 2.4 2.3 2.1 1.4 1.6 2.1 1.8 1.7 1.5 1.6 1.8 1.7 1.7 1.8
1.9 1.9 2.8 3.2 3.5 8.2 14.4 6.0 5.3 6.1 5.7 4.5 4.3 5.2 5.4 5.2 3.4 3.3 1.4 0.7 0.9 1.1 1.6 2.4 2.7 1.9 1.4 1.7 1.5 1.5 1.7 2.5
2.0 2.3 2.4 1.9 1.7 1.8 2.9 3.1 5.3 5.3 7.7 7.0 8.2 6.1 3.9 3.0 3.4 2.1 1.0 1.2 1.2 0.3 0.0 0.2 0.3 0.9 1.8 1.5 1.5 1.3 1.0 1.9
1.7 1.5 0.6 0.8 0.9 1.4 0.9 1.3 3.5 2.9 4.3 8.8 6.8 6.1 6.2 4.4 2.7 2.2 2.3 2.2 1.3 1.7 2.2 1.9 1.5 1.7 0.6 0.7 1.1 1.4 2.4 2.3
1.3 1.3 1.2 1.1 1.0 0.7 0.7 0.8 1.5 2.1 2.2 7.0 8.2 7.5 6.3 7.5 1.2 1.6 3.2 5.6 5.7 4.3 5.6 3.7 4.7 4.9 2.9 1.4 1.1 1.5 1.7 1.5
1.6 1.4 1.1 1.0 0.1 0.2 0.0 0.0 0.2 1.0 0.4 3.0 4.2 4.0 5.4 12.5 9.3 10.3 10.8 7.4 9.0 9.0 9.6 10.2 9.7 11.6 7.4 10.7 12.0 7.2 7.0 7.6

GFSFLT1_prec_kuchsnow_363.txt.gz
Snowfall_Accumulation
0.0 0.0 0.0 0.0 0.0 0.0 0.0 0.0 0.0 0.0 0.0 0.0 0.0 0.0 0.0 0.0 0.0 0.0 0.0 0.0 0.0 0.0 0.0 0.0 0.0 0.0 0.0 0.0 0.0 0.0 0.0 0.0
0.0 0.0 0.0 0.0 0.0 0.0 0.0 0.0 0.0 0.0 0.0 0.0 0.0 0.0 0.0 0.0 0.0 0.0 0.0 0.0 0.0 0.0 0.0 0.0 0.0 0.0 0.0 0.0 0.0 0.0 0.0 0.0
0.0 0.0 0.0 0.0 0.0 0.0 0.0 0.0 0.0 0.0 0.0 0.0 0.0 0.0 0.0 0.0 0.0 0.0 0.0 0.0 0.0 0.0 0.0 0.0 0.0 0.0 0.0 0.0 0.0 0.0 0.0 0.0
0.0 0.0 0.0 0.0 0.0 0.0 0.0 0.0 0.0 0.0 0.0 0.0 0.0 0.0 0.0 0.0 0.0 0.0 0.0 0.0 0.0 0.0 0.0 0.0 0.0 0.0 0.0 0.0 0.0 0.0 0.1 0.0
0.0 0.0 0.0 0.0 0.0 0.0 0.0 0.0 0.0 0.0 0.0 0.0 0.0 0.0 0.0 0.0 0.0 0.0 0.0 0.0 0.0 0.0 0.0 0.0 0.0 0.0 0.0 0.0 0.0 0.0 0.1 0.1
0.0 0.0 0.0 0.0 0.0 0.0 0.0 0.0 0.0 0.0 0.0 0.0 0.0 0.0 0.0 0.0 0.0 0.0 0.0 0.0 0.0 0.0 0.0 0.0 0.0 0.0 0.0 0.0 0.0 0.0 0.0 0.1
0.0 0.0 0.0 0.0 0.0 0.0 0.0 0.0 0.0 0.0 0.0 0.0 0.0 0.0 0.0 0.0 0.0 0.0 0.0 0.0 0.0 0.0 0.0 0.0 0.0 0.0 0.1 0.0 0.1 0.1 0.1 0.1
0.0 0.0 0.0 0.0 0.0 0.0 0.0 0.0 0.0 0.0 0.0 0.0 0.0 0.0 0.0 0.0 0.0 0.0 0.0 0.0 0.0 0.0 0.0 0.0 0.0 0.1 0.1 0.1 0.0 0.1 0.2 0.2
0.0 0.0 0.0 0.0 0.0 0.0 0.0 0.0 0.0 0.0 0.0 0.0 0.0 0.0 0.0 0.1 0.0 0.1 0.1 0.1 0.2 0.1 0.2 0.0 0.0 0.2 0.0 0.1 0.1 0.1 0.2 0.4
0.1 0.0 0.0 0.0 0.0 0.0 0.1 0.0 0.0 0.0 0.0 0.0 0.0 0.0 0.2 0.2 0.1 0.1 0.2 0.2 0.2 0.2 0.1 0.1 0.1 0.1 0.1 0.1 0.2 0.3 0.3 0.6
1.2 0.3 0.2 0.0 0.0 0.0 0.1 0.0 0.3 0.5 0.2 0.1 0.1 0.1 0.3 0.5 0.5 0.8 0.7 0.5 0.9 0.7 0.4 0.4 0.3 0.4 0.2 0.2 0.4 0.6 0.5 0.5
5.2 5.4 1.9 2.0 2.2 0.8 1.4 2.2 1.0 0.4 0.1 0.1 0.5 1.0 1.8 1.6 1.8 1.5 1.4 1.2 1.0 0.8 1.0 1.0 1.2 1.2 1.1 1.0 0.8 0.8 0.9 0.6
4.1 9.7 10.4 8.2 8.1 7.1 5.3 1.5 0.9 0.4 0.4 0.6 2.3 2.9 2.5 2.3 2.6 2.2 1.8 1.8 1.3 1.4 1.3 1.1 1.2 1.4 1.4 1.7 1.8 1.6 1.7 1.4
1.7 3.8 7.1 13.0 6.3 8.5 5.8 4.3 4.6 2.1 2.5 2.5 3.7 4.0 3.6 3.6 3.5 3.0 2.4 2.3 2.1 1.4 1.6 2.1 1.8 1.7 1.5 1.6 1.8 1.7 1.7 1.8
1.9 1.9 2.8 3.2 3.5 8.2 14.4 6.0 5.3 6.1 5.7 4.5 4.3 5.2 5.4 5.2 3.4 3.3 1.4 0.7 0.9 1.1 1.6 2.4 2.7 1.9 1.4 1.7 1.5 1.5 1.7 2.5
2.0 2.3 2.4 1.9 1.7 1.8 2.9 3.1 5.3 5.3 7.7 7.0 8.2 6.1 3.9 3.0 3.4 2.1 1.0 1.2 1.2 0.3 0.0 0.2 0.3 0.9 1.8 1.5 1.5 1.3 1.0 1.9
1.7 1.5 0.6 0.8 0.9 1.4 0.9 1.3 3.5 2.9 4.3 8.8 6.8 6.1 6.2 4.4 2.7 2.2 2.3 2.2 1.3 1.7 2.2 1.9 1.5 1.7 0.6 0.7 1.1 1.4 2.4 2.3
1.4 1.4 1.2 1.1 1.0 0.7 0.7 0.8 1.5 2.1 2.2 7.0 8.2 7.5 6.3 7.5 1.2 1.6 3.2 5.6 5.7 4.3 5.6 3.7 4.7 4.9 2.9 1.4 1.1 1.5 1.7 1.5
1.7 1.6 1.2 1.1 0.1 0.2 0.0 0.0 0.2 1.0 0.4 3.0 4.2 4.0 5.4 12.5 9.3 10.3 10.8 7.4 9.0 9.0 9.6 10.2 9.7 11.6 7.4 10.7 12.0 7.2 7.0 7.6

GFSFLT1_prec_kuchsnow_369.txt.gz
Snowfall_Accumulation
0.0 0.0 0.0 0.0 0.0 0.0 0.0 0.0 0.0 0.0 0.0 0.0 0.0 0.0 0.0 0.0 0.0 0.0 0.0 0.0 0.0 0.0 0.0 0.0 0.0 0.0 0.0 0.0 0.0 0.0 0.0 0.0
0.0 0.0 0.0 0.0 0.0 0.0 0.0 0.0 0.0 0.0 0.0 0.0 0.0 0.0 0.0 0.0 0.0 0.0 0.0 0.0 0.0 0.0 0.0 0.0 0.0 0.0 0.0 0.0 0.0 0.0 0.0 0.0
0.0 0.0 0.0 0.0 0.0 0.0 0.0 0.0 0.0 0.0 0.0 0.0 0.0 0.0 0.0 0.0 0.0 0.0 0.0 0.0 0.0 0.0 0.0 0.0 0.0 0.0 0.0 0.0 0.0 0.0 0.0 0.0
0.0 0.0 0.0 0.0 0.0 0.0 0.0 0.0 0.0 0.0 0.0 0.0 0.0 0.0 0.0 0.0 0.0 0.0 0.0 0.0 0.0 0.0 0.0 0.0 0.0 0.0 0.0 0.0 0.0 0.0 0.1 0.0
0.0 0.0 0.0 0.0 0.0 0.0 0.0 0.0 0.0 0.0 0.0 0.0 0.0 0.0 0.0 0.0 0.0 0.0 0.0 0.0 0.0 0.0 0.0 0.0 0.0 0.0 0.0 0.0 0.0 0.0 0.1 0.1
0.0 0.0 0.0 0.0 0.0 0.0 0.0 0.0 0.0 0.0 0.0 0.0 0.0 0.0 0.0 0.0 0.0 0.0 0.0 0.0 0.0 0.0 0.0 0.0 0.0 0.0 0.0 0.0 0.0 0.0 0.0 0.1
0.0 0.0 0.0 0.0 0.0 0.0 0.0 0.0 0.0 0.0 0.0 0.0 0.0 0.0 0.0 0.0 0.0 0.0 0.0 0.0 0.0 0.0 0.0 0.0 0.0 0.0 0.1 0.0 0.1 0.1 0.1 0.1
0.0 0.0 0.0 0.0 0.0 0.0 0.0 0.0 0.0 0.0 0.0 0.0 0.0 0.0 0.0 0.0 0.0 0.0 0.0 0.0 0.0 0.0 0.0 0.0 0.0 0.1 0.1 0.1 0.0 0.1 0.2 0.2
0.0 0.0 0.0 0.0 0.0 0.0 0.0 0.0 0.0 0.0 0.0 0.0 0.0 0.0 0.0 0.1 0.0 0.1 0.1 0.1 0.2 0.1 0.2 0.0 0.0 0.2 0.0 0.1 0.1 0.1 0.2 0.4
0.1 0.0 0.0 0.0 0.0 0.0 0.1 0.0 0.0 0.0 0.0 0.0 0.0 0.0 0.2 0.2 0.1 0.1 0.2 0.2 0.2 0.2 0.1 0.1 0.1 0.1 0.1 0.1 0.2 0.3 0.3 0.6
1.2 0.3 0.2 0.0 0.0 0.0 0.1 0.0 0.3 0.5 0.2 0.1 0.1 0.1 0.3 0.5 0.5 0.8 0.7 0.5 0.9 0.7 0.4 0.4 0.3 0.4 0.2 0.2 0.4 0.6 0.5 0.5
5.2 5.4 1.9 2.0 2.2 0.8 1.4 2.2 1.0 0.4 0.1 0.1 0.5 1.0 1.8 1.6 1.8 1.5 1.4 1.2 1.0 0.8 1.0 1.0 1.2 1.2 1.1 1.0 0.8 0.8 0.9 0.6
4.1 9.7 10.4 8.2 8.1 7.1 5.3 1.5 0.9 0.4 0.4 0.6 2.3 2.9 2.5 2.3 2.6 2.2 1.8 1.8 1.3 1.4 1.3 1.1 1.2 1.4 1.4 1.7 1.8 1.6 1.7 1.4
1.7 3.8 7.1 13.0 6.3 8.5 5.8 4.3 4.6 2.1 2.5 2.5 3.7 4.0 3.6 3.6 3.5 3.0 2.4 2.3 2.1 1.4 1.6 2.1 1.8 1.7 1.5 1.6 1.8 1.7 1.7 1.8
2.4 1.9 2.8 3.2 3.5 8.2 14.4 6.0 5.3 6.1 5.7 4.5 4.3 5.2 5.4 5.2 3.4 3.3 1.4 0.7 0.9 1.1 1.6 2.4 2.7 1.9 1.4 1.7 1.5 1.5 1.7 2.5
2.0 2.3 2.4 1.9 1.7 1.8 2.9 3.1 5.3 5.3 7.7 7.0 8.2 6.1 3.9 3.0 3.4 2.1 1.0 1.2 1.2 0.3 0.0 0.2 0.3 0.9 1.8 1.5 1.5 1.3 1.0 1.9
1.7 1.5 0.6 0.8 0.9 1.4 0.9 1.3 3.5 2.9 4.3 8.8 6.8 6.1 6.2 4.4 2.7 2.2 2.3 2.2 1.3 1.7 2.2 1.9 1.5 1.7 0.6 0.7 1.1 1.4 2.4 2.3
1.4 1.4 1.2 1.1 1.0 0.7 0.7 0.8 1.5 2.1 2.2 7.0 8.2 7.5 6.3 7.5 1.2 1.6 3.2 5.6 5.7 4.3 5.6 3.7 4.7 4.9 2.9 1.4 1.1 1.5 1.7 1.5
1.7 1.6 1.3 1.1 0.2 0.2 0.0 0.0 0.2 1.0 0.4 3.0 4.2 4.0 5.4 12.5 9.3 10.3 10.8 7.4 9.0 9.0 9.6 10.2 9.7 11.6 7.4 10.7 12.0 7.2 7.0 7.6

GFSFLT1_prec_kuchsnow_372.txt.gz
Snowfall_Accumulation
0.0 0.0 0.0 0.0 0.0 0.0 0.0 0.0 0.0 0.0 0.0 0.0 0.0 0.0 0.0 0.0 0.0 0.0 0.0 0.0 0.0 0.0 0.0 0.0 0.0 0.0 0.0 0.0 0.0 0.0 0.0 0.0
0.0 0.0 0.0 0.0 0.0 0.0 0.0 0.0 0.0 0.0 0.0 0.0 0.0 0.0 0.0 0.0 0.0 0.0 0.0 0.0 0.0 0.0 0.0 0.0 0.0 0.0 0.0 0.0 0.0 0.0 0.0 0.0
0.0 0.0 0.0 0.0 0.0 0.0 0.0 0.0 0.0 0.0 0.0 0.0 0.0 0.0 0.0 0.0 0.0 0.0 0.0 0.0 0.0 0.0 0.0 0.0 0.0 0.0 0.0 0.0 0.0 0.0 0.0 0.0
0.0 0.0 0.0 0.0 0.0 0.0 0.0 0.0 0.0 0.0 0.0 0.0 0.0 0.0 0.0 0.0 0.0 0.0 0.0 0.0 0.0 0.0 0.0 0.0 0.0 0.0 0.0 0.0 0.0 0.0 0.1 0.0
0.0 0.0 0.0 0.0 0.0 0.0 0.0 0.0 0.0 0.0 0.0 0.0 0.0 0.0 0.0 0.0 0.0 0.0 0.0 0.0 0.0 0.0 0.0 0.0 0.0 0.0 0.0 0.0 0.0 0.0 0.1 0.1
0.0 0.0 0.0 0.0 0.0 0.0 0.0 0.0 0.0 0.0 0.0 0.0 0.0 0.0 0.0 0.0 0.0 0.0 0.0 0.0 0.0 0.0 0.0 0.0 0.0 0.0 0.0 0.0 0.0 0.0 0.0 0.1
0.0 0.0 0.0 0.0 0.0 0.0 0.0 0.0 0.0 0.0 0.0 0.0 0.0 0.0 0.0 0.0 0.0 0.0 0.0 0.0 0.0 0.0 0.0 0.0 0.0 0.0 0.1 0.0 0.1 0.1 0.1 0.1
0.0 0.0 0.0 0.0 0.0 0.0 0.0 0.0 0.0 0.0 0.0 0.0 0.0 0.0 0.0 0.0 0.0 0.0 0.0 0.0 0.0 0.0 0.0 0.0 0.0 0.1 0.1 0.1 0.0 0.1 0.2 0.2
0.0 0.0 0.0 0.0 0.0 0.0 0.0 0.0 0.0 0.0 0.0 0.0 0.0 0.0 0.0 0.1 0.0 0.1 0.1 0.1 0.2 0.1 0.2 0.0 0.0 0.2 0.0 0.1 0.1 0.1 0.2 0.4
0.1 0.0 0.0 0.0 0.0 0.0 0.1 0.0 0.0 0.0 0.0 0.0 0.0 0.0 0.2 0.2 0.1 0.1 0.2 0.2 0.2 0.2 0.1 0.1 0.1 0.1 0.1 0.1 0.2 0.3 0.3 0.6
1.2 0.3 0.2 0.0 0.0 0.0 0.1 0.0 0.3 0.5 0.2 0.1 0.1 0.1 0.3 0.5 0.5 0.8 0.7 0.5 0.9 0.7 0.4 0.4 0.3 0.4 0.2 0.2 0.4 0.6 0.5 0.5
5.3 5.4 1.9 2.0 2.2 0.8 1.4 2.2 1.0 0.4 0.1 0.1 0.5 1.0 1.8 1.6 1.8 1.5 1.4 1.2 1.0 0.8 1.0 1.0 1.2 1.2 1.1 1.0 0.8 0.8 0.9 0.6
4.4 9.8 10.4 8.2 8.1 7.1 5.3 1.5 0.9 0.4 0.4 0.6 2.3 2.9 2.5 2.3 2.6 2.2 1.8 1.8 1.3 1.4 1.3 1.1 1.2 1.4 1.4 1.7 1.8 1.6 1.7 1.4
2.2 3.9 7.1 13.0 6.3 8.5 5.8 4.3 4.6 2.1 2.5 2.5 3.7 4.0 3.6 3.6 3.5 3.0 2.4 2.3 2.1 1.4 1.6 2.1 1.8 1.7 1.5 1.6 1.8 1.7 1.7 1.8
2.7 1.9 2.8 3.2 3.5 8.2 14.4 6.0 5.3 6.1 5.7 4.5 4.3 5.2 5.4 5.2 3.4 3.3 1.4 0.7 0.9 1.1 1.6 2.4 2.7 1.9 1.4 1.7 1.5 1.5 1.7 2.5
2.0 2.3 2.4 1.9 1.7 1.8 2.9 3.1 5.3 5.3 7.7 7.0 8.2 6.1 3.9 3.0 3.4 2.1 1.0 1.2 1.2 0.3 0.0 0.2 0.3 0.9 1.8 1.5 1.5 1.3 1.0 1.9
1.7 1.5 0.6 0.8 0.9 1.4 0.9 1.3 3.5 2.9 4.3 8.8 6.8 6.1 6.2 4.4 2.7 2.2 2.3 2.2 1.3 1.7 2.2 1.9 1.5 1.7 0.6 0.7 1.1 1.4 2.4 2.3
1.4 1.4 1.2 1.1 1.0 0.7 0.7 0.8 1.5 2.1 2.2 7.0 8.2 7.5 6.3 7.5 1.2 1.6 3.2 5.6 5.7 4.3 5.6 3.7 4.7 4.9 2.9 1.4 1.1 1.5 1.7 1.5
1.7 1.6 1.3 1.1 0.2 0.2 0.0 0.0 0.2 1.0 0.4 3.0 4.2 4.0 5.4 12.5 9.3 10.3 10.8 7.4 9.0 9.0 9.6 10.2 9.7 11.6 7.4 10.7 12.0 7.2 7.0 7.6

GFSFLT1_prec_kuchsnow_378.txt.gz
Snowfall_Accumulation
0.0 0.0 0.0 0.0 0.0 0.0 0.0 0.0 0.0 0.0 0.0 0.0 0.0 0.0 0.0 0.0 0.0 0.0 0.0 0.0 0.0 0.0 0.0 0.0 0.0 0.0 0.0 0.0 0.0 0.0 0.0 0.0
0.0 0.0 0.0 0.0 0.0 0.0 0.0 0.0 0.0 0.0 0.0 0.0 0.0 0.0 0.0 0.0 0.0 0.0 0.0 0.0 0.0 0.0 0.0 0.0 0.0 0.0 0.0 0.0 0.0 0.0 0.0 0.0
0.0 0.0 0.0 0.0 0.0 0.0 0.0 0.0 0.0 0.0 0.0 0.0 0.0 0.0 0.0 0.0 0.0 0.0 0.0 0.0 0.0 0.0 0.0 0.0 0.0 0.0 0.0 0.0 0.0 0.0 0.0 0.0
0.0 0.0 0.0 0.0 0.0 0.0 0.0 0.0 0.0 0.0 0.0 0.0 0.0 0.0 0.0 0.0 0.0 0.0 0.0 0.0 0.0 0.0 0.0 0.0 0.0 0.0 0.0 0.0 0.0 0.0 0.1 0.0
0.0 0.0 0.0 0.0 0.0 0.0 0.0 0.0 0.0 0.0 0.0 0.0 0.0 0.0 0.0 0.0 0.0 0.0 0.0 0.0 0.0 0.0 0.0 0.0 0.0 0.0 0.0 0.0 0.0 0.0 0.1 0.1
0.0 0.0 0.0 0.0 0.0 0.0 0.0 0.0 0.0 0.0 0.0 0.0 0.0 0.0 0.0 0.0 0.0 0.0 0.0 0.0 0.0 0.0 0.0 0.0 0.0 0.0 0.0 0.0 0.0 0.0 0.0 0.1
0.0 0.0 0.0 0.0 0.0 0.0 0.0 0.0 0.0 0.0 0.0 0.0 0.0 0.0 0.0 0.0 0.0 0.0 0.0 0.0 0.0 0.0 0.0 0.0 0.0 0.0 0.1 0.0 0.1 0.1 0.1 0.1
0.0 0.0 0.0 0.0 0.0 0.0 0.0 0.0 0.0 0.0 0.0 0.0 0.0 0.0 0.0 0.0 0.0 0.0 0.0 0.0 0.0 0.0 0.0 0.0 0.0 0.1 0.1 0.1 0.0 0.1 0.2 0.2
0.0 0.0 0.0 0.0 0.0 0.0 0.0 0.0 0.0 0.0 0.0 0.0 0.0 0.0 0.0 0.1 0.0 0.1 0.1 0.1 0.2 0.1 0.2 0.0 0.0 0.2 0.0 0.1 0.1 0.1 0.2 0.4
0.1 0.0 0.0 0.0 0.0 0.0 0.1 0.0 0.0 0.0 0.0 0.0 0.0 0.0 0.2 0.2 0.1 0.1 0.2 0.2 0.2 0.2 0.1 0.1 0.1 0.1 0.1 0.1 0.2 0.3 0.3 0.6
1.2 0.3 0.2 0.0 0.0 0.0 0.1 0.0 0.3 0.5 0.2 0.1 0.1 0.1 0.3 0.5 0.5 0.8 0.7 0.5 0.9 0.7 0.4 0.4 0.3 0.4 0.2 0.2 0.4 0.6 0.5 0.5
5.3 5.5 1.9 2.0 2.2 0.8 1.4 2.2 1.0 0.4 0.1 0.1 0.5 1.0 1.8 1.6 1.8 1.5 1.4 1.2 1.0 0.8 1.0 1.0 1.2 1.2 1.1 1.0 0.8 0.8 0.9 0.6
4.8 10.3 10.5 8.2 8.2 7.1 5.3 1.5 0.9 0.4 0.4 0.6 2.3 2.9 2.5 2.3 2.6 2.2 1.8 1.8 1.3 1.4 1.3 1.1 1.2 1.4 1.4 1.7 1.8 1.6 1.7 1.4
2.8 4.7 7.5 13.1 6.3 8.8 5.8 4.3 4.6 2.1 2.5 2.5 3.7 4.0 3.6 3.6 3.5 3.0 2.4 2.3 2.1 1.4 1.6 2.1 1.8 1.7 1.5 1.6 1.8 1.7 1.7 1.8
3.5 2.7 3.4 3.4 3.6 8.3 14.7 6.0 5.3 6.1 5.7 4.5 4.3 5.2 5.4 5.2 3.4 3.3 1.4 0.7 0.9 1.1 1.6 2.4 2.7 1.9 1.4 1.7 1.5 1.5 1.7 2.5
2.4 3.2 3.4 2.4 1.9 1.9 3.0 3.6 5.3 5.3 7.7 7.0 8.2 6.1 3.9 3.0 3.4 2.1 1.0 1.2 1.2 0.3 0.0 0.2 0.3 0.9 1.8 1.5 1.5 1.3 1.0 1.9
1.8 1.6 1.6 1.5 1.3 1.5 0.9 1.3 3.5 2.9 4.3 8.8 6.8 6.1 6.2 4.4 2.7 2.2 2.3 2.2 1.3 1.7 2.2 1.9 1.5 1.7 0.6 0.7 1.1 1.4 2.4 2.3
1.4 1.4 1.4 1.5 1.2 0.8 0.8 0.8 1.5 2.1 2.2 7.0 8.2 7.5 6.3 7.5 1.2 1.6 3.2 5.6 5.7 4.3 5.6 3.7 4.7 4.9 2.9 1.4 1.1 1.5 1.7 1.5
1.7 1.6 1.3 1.1 0.2 0.2 0.0 0.0 0.2 1.0 0.4 3.0 4.2 4.0 5.4 12.5 9.3 10.3 10.8 7.4 9.0 9.0 9.6 10.2 9.7 11.6 7.4 10.7 12.0 7.2 7.0 7.6

GFSFLT1_prec_kuchsnow_381.txt.gz
Snowfall_Accumulation
0.0 0.0 0.0 0.0 0.0 0.0 0.0 0.0 0.0 0.0 0.0 0.0 0.0 0.0 0.0 0.0 0.0 0.0 0.0 0.0 0.0 0.0 0.0 0.0 0.0 0.0 0.0 0.0 0.0 0.0 0.0 0.0
0.0 0.0 0.0 0.0 0.0 0.0 0.0 0.0 0.0 0.0 0.0 0.0 0.0 0.0 0.0 0.0 0.0 0.0 0.0 0.0 0.0 0.0 0.0 0.0 0.0 0.0 0.0 0.0 0.0 0.0 0.0 0.0
0.0 0.0 0.0 0.0 0.0 0.0 0.0 0.0 0.0 0.0 0.0 0.0 0.0 0.0 0.0 0.0 0.0 0.0 0.0 0.0 0.0 0.0 0.0 0.0 0.0 0.0 0.0 0.0 0.0 0.0 0.0 0.0
0.0 0.0 0.0 0.0 0.0 0.0 0.0 0.0 0.0 0.0 0.0 0.0 0.0 0.0 0.0 0.0 0.0 0.0 0.0 0.0 0.0 0.0 0.0 0.0 0.0 0.0 0.0 0.0 0.0 0.0 0.1 0.0
0.0 0.0 0.0 0.0 0.0 0.0 0.0 0.0 0.0 0.0 0.0 0.0 0.0 0.0 0.0 0.0 0.0 0.0 0.0 0.0 0.0 0.0 0.0 0.0 0.0 0.0 0.0 0.0 0.0 0.0 0.1 0.1
0.0 0.0 0.0 0.0 0.0 0.0 0.0 0.0 0.0 0.0 0.0 0.0 0.0 0.0 0.0 0.0 0.0 0.0 0.0 0.0 0.0 0.0 0.0 0.0 0.0 0.0 0.0 0.0 0.0 0.0 0.0 0.1
0.0 0.0 0.0 0.0 0.0 0.0 0.0 0.0 0.0 0.0 0.0 0.0 0.0 0.0 0.0 0.0 0.0 0.0 0.0 0.0 0.0 0.0 0.0 0.0 0.0 0.0 0.1 0.0 0.1 0.1 0.1 0.1
0.0 0.0 0.0 0.0 0.0 0.0 0.0 0.0 0.0 0.0 0.0 0.0 0.0 0.0 0.0 0.0 0.0 0.0 0.0 0.0 0.0 0.0 0.0 0.0 0.0 0.1 0.1 0.1 0.0 0.1 0.2 0.2
0.0 0.0 0.0 0.0 0.0 0.0 0.0 0.0 0.0 0.0 0.0 0.0 0.0 0.0 0.0 0.1 0.0 0.1 0.1 0.1 0.2 0.1 0.2 0.0 0.0 0.2 0.0 0.1 0.1 0.1 0.2 0.4
0.1 0.0 0.0 0.0 0.0 0.0 0.1 0.0 0.0 0.0 0.0 0.0 0.0 0.0 0.2 0.2 0.1 0.1 0.2 0.2 0.2 0.2 0.1 0.1 0.1 0.1 0.1 0.1 0.2 0.3 0.3 0.6
1.2 0.3 0.2 0.0 0.0 0.0 0.1 0.0 0.3 0.5 0.2 0.1 0.1 0.1 0.3 0.5 0.5 0.8 0.7 0.5 0.9 0.7 0.4 0.4 0.3 0.4 0.2 0.2 0.4 0.6 0.5 0.5
5.3 5.5 1.9 2.0 2.2 0.8 1.4 2.2 1.0 0.4 0.1 0.1 0.5 1.0 1.8 1.6 1.8 1.5 1.4 1.2 1.0 0.8 1.0 1.0 1.2 1.2 1.1 1.0 0.8 0.8 0.9 0.6
4.8 10.3 10.5 8.2 8.2 7.1 5.3 1.5 0.9 0.4 0.4 0.6 2.3 2.9 2.5 2.3 2.6 2.2 1.8 1.8 1.3 1.4 1.3 1.1 1.2 1.4 1.4 1.7 1.8 1.6 1.7 1.4
2.8 4.7 7.5 13.1 6.3 8.8 5.8 4.3 4.6 2.1 2.5 2.5 3.7 4.0 3.6 3.6 3.5 3.0 2.4 2.3 2.1 1.4 1.6 2.1 1.8 1.7 1.5 1.6 1.8 1.7 1.7 1.8
3.5 2.7 3.4 3.4 3.6 8.3 14.7 6.0 5.3 6.1 5.7 4.5 4.3 5.2 5.4 5.2 3.4 3.3 1.4 0.7 0.9 1.1 1.6 2.4 2.7 1.9 1.4 1.7 1.5 1.5 1.7 2.5
2.4 3.2 3.4 2.4 1.9 1.9 3.1 3.6 5.3 5.3 7.7 7.0 8.2 6.1 3.9 3.0 3.4 2.1 1.0 1.2 1.2 0.3 0.0 0.2 0.3 0.9 1.8 1.5 1.5 1.3 1.0 1.9
1.8 1.6 1.6 1.8 1.5 1.7 1.1 1.5 3.5 2.9 4.3 8.8 6.8 6.1 6.2 4.4 2.7 2.2 2.3 2.2 1.3 1.7 2.2 1.9 1.5 1.7 0.6 0.7 1.1 1.4 2.4 2.3
1.4 1.4 1.4 2.6 1.7 1.3 1.5 1.3 1.5 2.1 2.2 7.0 8.2 7.5 6.3 7.5 1.2 1.6 3.2 5.6 5.7 4.3 5.6 3.7 4.7 4.9 2.9 1.4 1.1 1.5 1.7 1.5
1.7 1.6 1.3 1.1 0.2 0.5 1.1 1.1 0.5 1.0 0.4 3.0 4.2 4.0 5.4 12.5 9.3 10.3 10.8 7.4 9.0 9.0 9.6 10.2 9.7 11.6 7.4 10.7 12.0 7.2 7.0 7.6